STARLINK-5690 (55480 NORAD) Tracking and Keplerian Element Data

This shows tracking and keplerian element data for the satellite.

Feedback or suggestion? Click here.




ElementValue
Catalog55480
NameSTARLINK-5690
Epoch Orbit807
Epoch Day85.25001157
Epoch Year2023
RAAN81.7825
Inclination42.9985
Eccentricity0.0001319
Argument of Perigee278.073
Mean Anonmoly235.3061
Mean Motion15.20608624
Decay Rate-0.00917007
L11 55480U 23015AH 23085.25001157 -.00917007 00000+0 -44291-1 0 9998
L22 55480 42.9985 81.7825 0001319 278.0730 235.3061 15.20608624 8072



Live tracking and technical data element details for STARLINK-5690 (NORAD 55480). STARLINK-5690 can be tracked NOW for your location showing map with azimuth and elevation plus other details from your city location.







IsCatalogInMostPopularTable: catalog: 55480, numindb: -1

Insert: records affected: 1


GetName: 55480 STARLINK-5690

Hit Count: inserted at: Tue, 28 Mar 2023 02:43:24 GMT